EW7290 Weather Reports


Display with metric or nautical units.
time (UTC)temp
F
wind
direction
speed
MPH
gust
MPH
rain 1hr
in
rain 24hr
in
rain mn
in
humidity
%
barometer
mb
20260906200057 78 163 14.0 23.0 0.00 0.38 0.38 72 1009.2
20260906194544 78 165 14.0 22.0 0.00 0.38 0.38 73 1009.3
20260906193039 78 176 14.0 19.0 0.00 0.38 0.38 70 1009.6
20260906191557 76 137 14.0 19.0 0.00 0.38 0.38 71 1009.8
20260906190105 77 119 14.0 17.0 0.00 0.38 0.38 69 1010.1
20260906184549 77 119 10.0 16.0 0.00 0.38 0.38 71 1010.4
20260906183035 75 105 6.0 11.0 0.00 0.38 0.38 77 1010.7
20260906181537 73 91 6.0 11.0 0.00 0.38 0.38 82 1011.0
20260906180002 70 70 7.0 13.0 0.01 0.38 0.38 86 1011.4
20260906174554 69 61 8.0 13.0 0.02 0.38 0.38 90 1012.0
20260906173037 68 70 9.0 13.0 0.03 0.38 0.38 91 1012.9
20260906171519 68 94 9.0 17.0 0.04 0.38 0.38 93 1013.7
20260906170008 68 74 12.0 21.0 0.08 0.37 0.37 93 1014.8
20260906164536 68 90 10.0 18.0 0.11 0.36 0.36 94 1014.7
20260906163056 68 111 10.0 18.0 0.10 0.35 0.35 93 1014.7
20260906161538 68 87 14.0 21.0 0.10 0.34 0.34 93 1014.0
20260906160021 69 85 17.0 27.0 0.06 0.28 0.28 90 1014.3
20260906154503 70 69 9.0 12.0 0.03 0.25 0.25 88 1013.5
20260906153043 70 67 0.0 3.0 0.03 0.25 0.25 89 1012.1
20260906151528 70 277 4.0 8.0 0.02 0.24 0.24 88 1011.5
20260906150014 70 310 6.0 9.0 0.03 0.23 0.23 87 1011.3
20260906144614 70 323 6.0 14.0 0.03 0.22 0.22 88 1010.8
20260906143101 69 314 8.0 14.0 0.04 0.22 0.22 89 1010.6
20260906141502 69 309 7.0 13.0 0.04 0.22 0.22 88 1010.6
20260906140021 70 275 9.0 16.0 0.03 0.20 0.20 87 1010.8
20260906134509 70 253 10.0 14.0 0.02 0.19 0.19 87 1010.8
20260906133119 70 272 8.0 14.0 0.01 0.18 0.18 88 1010.3
20260906131545 71 180 7.0 10.0 0.01 0.18 0.18 84 1009.4
20260906130042 72 166 9.0 12.0 0.02 0.17 0.17 81 1009.4
20260906124604 71 189 9.0 15.0 0.14 0.17 0.17 82 1009.3
20260906123051 70 207 8.0 15.0 0.17 0.17 0.17 86 1009.3
20260906121537 70 211 13.0 22.0 0.17 0.17 0.17 87 1009.2
20260906120025 71 217 20.0 28.0 0.14 0.14 0.14 87 1009.4
20260906114554 74 217 13.0 25.0 0.03 0.03 0.03 86 1010.1
20260906113109 74 198 13.0 18.0 0.00 0.00 0.00 91 1009.7
20260906111549 74 191 10.0 16.0 0.00 0.00 0.00 92 1009.3
20260906110037 74 202 8.0 12.0 0.00 0.00 0.00 93 1009.1
20260906104528 74 163 7.0 10.0 0.00 0.00 0.00 92 1008.5
20260906103047 74 142 7.0 9.0 0.00 0.00 0.00 92 1008.3
20260906101530 74 168 7.0 11.0 0.00 0.00 0.00 92 1008.4
20260906100015 74 192 7.0 10.0 0.00 0.00 0.00 92 1008.6
20260906094513 74 164 7.0 11.0 0.00 0.00 0.00 92 1008.6
20260906093126 74 149 8.0 10.0 0.00 0.00 0.00 93 1008.7
20260906091503 74 156 7.0 11.0 0.00 0.00 0.00 93 1008.6
20260906090031 74 142 6.0 9.0 0.00 0.00 0.00 93 1008.5
20260906084510 74 146 5.0 8.0 0.00 0.00 0.00 92 1008.7
20260906083102 74 131 4.0 7.0 0.00 0.00 0.00 92 1008.8
20260906081545 74 145 5.0 8.0 0.00 0.00 0.00 92 1009.0
20260906080039 74 138 5.0 9.0 0.00 0.00 0.00 92 1009.1
20260906074527 74 132 6.0 9.0 0.00 0.00 0.00 92 1009.2
20260906073035 74 142 6.0 10.0 0.00 0.00 0.00 92 1009.1
20260906071520 74 144 6.0 9.0 0.00 0.00 0.00 92 1008.9
20260906070007 74 137 6.0 9.0 0.00 0.00 0.00 92 1008.9
20260906064522 74 129 4.0 9.0 0.00 0.00 0.00 92 1009.0
20260906063039 75 150 6.0 9.0 0.00 0.00 0.00 92 1008.9
20260906061527 75 146 7.0 10.0 0.00 0.00 0.00 92 1009.1
20260906060010 75 142 7.0 12.0 0.00 0.00 0.00 91 1009.2
20260906054609 75 139 8.0 12.0 0.00 0.00 0.00 91 1009.2
20260906053046 75 119 8.0 12.0 0.00 0.00 0.00 91 1009.0
20260906051546 75 134 8.0 12.0 0.00 0.00 0.00 90 1008.8
20260906050017 75 135 9.0 12.0 0.00 0.00 0.00 90 1008.7
20260906044504 75 134 8.0 10.0 0.00 0.00 0.00 89 1008.9
20260906043058 76 129 6.0 9.0 0.00 0.00 0.00 89 1009.1
20260906041509 76 101 6.0 9.0 0.00 0.00 0.00 88 1009.2
20260906040039 76 123 5.0 8.0 0.00 0.00 0.00 87 1009.2
20260906034526 76 113 5.0 9.0 0.00 0.00 0.00 86 1009.0
20260906033014 77 115 7.0 10.0 0.00 0.00 0.00 85 1009.0
20260906031604 77 109 6.0 9.0 0.00 0.00 0.00 85 1009.3
20260906030049 77 117 5.0 8.0 0.00 0.00 0.00 84 1009.5
20260906024546 77 117 6.0 9.0 0.00 0.00 0.00 83 1009.2
20260906023026 78 133 6.0 10.0 0.00 0.00 0.00 83 1009.0
20260906021512 78 139 6.0 10.0 0.00 0.00 0.00 83 1008.8
20260906014519 79 119 5.0 9.0 0.00 0.00 0.00 81 1008.1
20260906013042 79 88 6.0 9.0 0.00 0.00 0.00 80 1007.9
20260906011512 80 76 5.0 9.0 0.00 0.00 0.00 80 1007.7
20260906010101 81 92 4.0 8.0 0.00 0.00 0.00 80 1007.7
20260906004551 81 84 3.0 4.0 0.00 0.00 0.00 79 1007.5
20260906003035 83 100 3.0 4.0 0.00 0.00 0.00 75 1007.2
20260906001513 84 95 2.0 4.0 0.00 0.00 0.00 71 1007.1
20260906000046 85 126 5.0 8.0 0.00 0.00 0.00 70 1006.8
20260905234514 86 119 7.0 9.0 0.00 0.00 0.00 70 1006.7
20260905233104 85 102 2.0 4.0 0.00 0.00 0.00 72 1007.1
20260905231525 85 166 3.0 7.0 0.00 0.00 0.00 71 1007.2
20260905230048 84 153 4.0 8.0 0.00 0.00 0.00 73 1006.7
20260905224533 85 153 6.0 11.0 0.00 0.00 0.00 72 1006.5
20260905223018 85 123 3.0 5.0 0.00 0.00 0.00 73 1006.8
20260905221504 85 163 4.0 6.0 0.00 0.00 0.00 70 1006.8
20260905220054 86 180 4.0 7.0 0.00 0.00 0.00 67 1006.9
20260905214541 86 200 2.0 5.0 0.00 0.00 0.00 65 1007.2
20260905213027 86 216 3.0 7.0 0.00 0.00 0.00 64 1007.5
20260905211516 86 221 5.0 10.0 0.00 0.00 0.00 65 1007.2
20260905210105 86 223 7.0 13.0 0.00 0.00 0.00 65 1007.1
20260905204526 86 183 7.0 18.0 0.00 0.00 0.00 67 1006.8
20260905203043 85 176 14.0 23.0 0.00 0.00 0.00 65 1006.8
20260905201523 84 211 14.0 20.0 0.00 0.00 0.00 66 1006.7